NZ4D-1 Weather Reports


time (UTC)temp
C
wind
direction
speed
KPH
gust
KPH
rain 1hr
cm
rain 24hr
cm
rain mn
cm
humidity
%
barometer
mb
20260503174003 16 0 0.0 0.0 0.00 0.03 0.00 47 1018.7
20260503173004 16 0 0.0 0.0 0.00 0.03 0.00 50 1018.7
20260503172003 16 0 0.0 0.0 0.00 0.03 0.00 52 1018.7
20260503171003 16 0 0.0 0.0 0.00 0.03 0.00 51 1018.8
20260503151005 14 0 0.0 3.2 0.00 0.13 0.00 55 1019.5
20260503131005 11 0 0.0 0.0 0.00 0.18 0.00 79 1019.4
20260503072005 10 0 0.0 0.0 0.00 0.18 0.00 97 1014.8
20260503071005 10 0 0.0 0.0 0.00 0.18 0.00 97 1014.7
20260503055014 10 0 0.0 0.0 0.00 0.18 0.00 97 1014.4
20260503054007 10 0 0.0 0.0 0.00 0.18 0.00 97 1014.4
20260503053014 10 0 0.0 0.0 0.00 0.18 0.00 97 1014.3
20260503052005 10 0 0.0 0.0 0.00 0.18 0.00 97 1014.4
20260503050013 10 0 0.0 0.0 0.00 0.18 0.00 97 1014.3
20260503045004 10 0 0.0 0.0 0.00 0.18 0.00 97 1014.5
20260503044005 10 0 0.0 0.0 0.00 0.18 0.00 97 1014.4
20260503043004 10 0 0.0 0.0 0.00 0.18 0.00 97 1014.3
20260503042005 10 0 0.0 0.0 0.00 0.18 0.00 97 1014.2
20260503041004 10 0 0.0 0.0 0.00 0.18 0.00 97 1014.0
20260503040006 10 0 0.0 0.0 0.00 0.18 0.00 97 1014.0
20260503035005 10 0 0.0 0.0 0.00 0.18 0.18 97 1014.0
20260503034004 10 0 0.0 0.0 0.00 0.18 0.18 97 1014.0
20260503033005 10 0 0.0 0.0 0.00 0.18 0.18 97 1014.0
20260503032004 10 0 0.0 0.0 0.00 0.18 0.18 97 1014.0
20260503031004 10 0 0.0 0.0 0.00 0.18 0.18 97 1014.0
20260503030005 10 0 0.0 0.0 0.00 0.18 0.18 97 1014.0
20260503025004 10 0 0.0 0.0 0.00 0.18 0.18 97 1013.9
20260503024004 10 0 0.0 0.0 0.00 0.18 0.18 97 1014.0
20260503023005 10 0 0.0 0.0 0.00 0.18 0.18 97 1013.8
20260503022005 10 0 0.0 0.0 0.00 0.18 0.18 97 1013.8